Total_Precipitation_Accumulation
0.58 0.59 0.63 0.65 0.64 0.65 0.68 0.72 0.81 0.88 0.80 0.68 0.63 0.60 0.55 0.52 0.57 0.50 0.51 0.56 0.50 0.43 0.36 0.29 0.26 0.25 0.26 0.28 0.31 0.32 0.34 0.38 0.44 0.53 0.65 0.78 0.91 1.06
0.38 0.39 0.43 0.45 0.45 0.48 0.52 0.56 0.62 0.72 0.75 0.60 0.52 0.48 0.45 0.40 0.43 0.42 0.44 0.43 0.36 0.31 0.26 0.22 0.20 0.19 0.20 0.21 0.22 0.24 0.26 0.29 0.33 0.38 0.47 0.60 0.73 0.88
0.29 0.29 0.31 0.33 0.34 0.35 0.37 0.40 0.44 0.50 0.57 0.51 0.40 0.35 0.35 0.37 0.38 0.36 0.33 0.29 0.24 0.24 0.22 0.21 0.18 0.16 0.16 0.17 0.18 0.19 0.21 0.21 0.23 0.27 0.32 0.41 0.51 0.62
0.26 0.25 0.25 0.26 0.29 0.29 0.30 0.31 0.34 0.41 0.49 0.51 0.39 0.31 0.29 0.30 0.31 0.31 0.21 0.18 0.20 0.21 0.20 0.18 0.16 0.16 0.15 0.13 0.14 0.13 0.12 0.12 0.13 0.15 0.21 0.30 0.40 0.49
0.19 0.19 0.19 0.20 0.22 0.22 0.23 0.25 0.27 0.30 0.37 0.41 0.32 0.26 0.21 0.19 0.26 0.27 0.25 0.30 0.18 0.13 0.12 0.11 0.11 0.11 0.11 0.10 0.09 0.08 0.06 0.04 0.04 0.08 0.16 0.25 0.33 0.41
0.12 0.12 0.13 0.15 0.18 0.21 0.20 0.22 0.25 0.28 0.29 0.32 0.28 0.23 0.21 0.20 0.32 0.40 0.37 0.31 0.23 0.12 0.12 0.10 0.10 0.09 0.11 0.14 0.11 0.09 0.08 0.06 0.08 0.14 0.20 0.23 0.28 0.32
0.08 0.08 0.08 0.11 0.16 0.19 0.20 0.23 0.27 0.32 0.33 0.36 0.34 0.30 0.27 0.34 0.43 0.44 0.40 0.31 0.24 0.19 0.22 0.20 0.24 0.38 0.57 0.62 0.41 0.21 0.13 0.11 0.14 0.22 0.28 0.29 0.29 0.28
0.09 0.09 0.08 0.08 0.10 0.11 0.13 0.17 0.24 0.32 0.39 0.44 0.42 0.39 0.36 0.43 0.51 0.52 0.54 0.49 0.41 0.27 0.29 0.27 0.37 0.73 1.11 1.33 0.92 0.40 0.26 0.22 0.19 0.24 0.29 0.30 0.28 0.25
0.14 0.15 0.11 0.10 0.15 0.17 0.15 0.12 0.16 0.22 0.36 0.51 0.55 0.48 0.46 0.53 0.63 0.64 0.61 0.60 0.53 0.39 0.43 0.44 0.53 0.84 0.95 1.07 1.02 0.65 0.50 0.41 0.33 0.34 0.35 0.33 0.29 0.26
0.13 0.15 0.19 0.22 0.18 0.14 0.11 0.16 0.26 0.37 0.42 0.45 0.53 0.49 0.47 0.52 0.62 0.65 0.61 0.56 0.52 0.49 0.54 0.60 0.61 0.77 0.78 1.05 1.25 1.11 0.92 0.74 0.60 0.54 0.49 0.44 0.37 0.32
0.10 0.11 0.14 0.19 0.15 0.13 0.15 0.25 0.34 0.42 0.35 0.43 0.49 0.55 0.60 0.60 0.56 0.56 0.68 0.73 0.70 0.55 0.54 0.61 0.68 0.77 0.89 1.20 1.30 1.30 1.22 1.03 0.84 0.68 0.58 0.49 0.43 0.41
0.13 0.17 0.14 0.11 0.13 0.14 0.18 0.29 0.40 0.43 0.53 0.71 0.85 0.91 0.85 0.77 0.64 0.64 0.79 0.85 0.85 0.78 0.59 0.61 0.71 0.86 1.12 1.32 1.31 1.22 1.21 1.18 1.04 0.90 0.74 0.55 0.39 0.39
0.17 0.25 0.26 0.15 0.15 0.13 0.16 0.29 0.42 0.48 0.72 1.04 1.10 0.98 0.85 0.74 0.66 0.63 0.68 0.76 0.84 0.85 0.66 0.69 0.81 0.95 1.15 1.27 1.26 1.21 1.11 1.08 1.10 1.15 1.07 0.78 0.50 0.42
0.25 0.27 0.25 0.21 0.18 0.18 0.25 0.39 0.48 0.66 0.92 1.12 1.05 0.86 0.68 0.57 0.52 0.47 0.50 0.56 0.65 0.68 0.62 0.68 0.88 1.05 1.15 1.14 1.14 1.09 1.06 1.12 1.17 1.23 1.23 1.05 0.78 0.64
0.23 0.26 0.26 0.25 0.28 0.41 0.48 0.56 0.67 0.85 1.01 0.99 0.85 0.74 0.61 0.52 0.46 0.45 0.44 0.48 0.49 0.46 0.42 0.51 0.74 0.92 1.10 1.09 1.06 0.99 1.03 1.25 1.37 1.37 1.29 1.15 1.00 0.85
0.23 0.35 0.45 0.49 0.53 0.62 0.70 0.78 0.84 0.92 0.87 0.77 0.67 0.63 0.54 0.48 0.46 0.42 0.43 0.45 0.48 0.46 0.41 0.43 0.55 0.73 0.94 0.98 1.02 1.04 1.04 1.40 1.56 1.47 1.38 1.33 1.17 1.01
0.25 0.41 0.60 0.66 0.70 0.74 0.74 0.78 0.80 0.76 0.76 0.70 0.64 0.56 0.50 0.46 0.45 0.42 0.42 0.41 0.45 0.48 0.48 0.46 0.49 0.56 0.65 0.74 0.89 1.01 1.10 1.31 1.44 1.36 1.25 1.33 1.32 1.13
0.31 0.50 0.66 0.70 0.71 0.72 0.68 0.68 0.69 0.65 0.62 0.61 0.59 0.55 0.50 0.47 0.45 0.42 0.40 0.40 0.44 0.43 0.44 0.41 0.40 0.42 0.46 0.56 0.78 0.92 0.99 1.19 1.27 1.15 0.97 1.03 1.21 1.08
0.32 0.52 0.69 0.79 0.79 0.72 0.65 0.62 0.67 0.68 0.64 0.61 0.56 0.53 0.47 0.42 0.40 0.39 0.36 0.35 0.37 0.38 0.35 0.28 0.26 0.27 0.34 0.56 0.82 1.02 1.02 1.02 0.98 0.91 0.81 0.77 0.95 0.96
0.37 0.52 0.64 0.69 0.70 0.70 0.64 0.61 0.65 0.67 0.64 0.57 0.51 0.48 0.43 0.38 0.36 0.37 0.34 0.28 0.28 0.28 0.27 0.24 0.22 0.24 0.31 0.47 0.81 1.05 0.99 0.73 0.62 0.65 0.65 0.65 0.80 0.85
0.36 0.45 0.53 0.54 0.51 0.52 0.51 0.51 0.55 0.59 0.54 0.45 0.42 0.42 0.38 0.33 0.33 0.33 0.28 0.19 0.20 0.21 0.24 0.29 0.30 0.24 0.21 0.26 0.52 0.79 0.84 0.79 0.56 0.42 0.40 0.44 0.47 0.43
0.29 0.37 0.43 0.41 0.38 0.37 0.34 0.33 0.36 0.39 0.37 0.34 0.32 0.31 0.31 0.30 0.28 0.25 0.23 0.20 0.19 0.19 0.22 0.25 0.22 0.19 0.20 0.26 0.44 0.63 0.68 0.60 0.54 0.51 0.45 0.32 0.24 0.30
0.24 0.26 0.30 0.33 0.32 0.29 0.25 0.22 0.23 0.24 0.24 0.25 0.26 0.26 0.26 0.25 0.20 0.17 0.13 0.10 0.10 0.11 0.12 0.15 0.14 0.13 0.13 0.16 0.22 0.30 0.33 0.31 0.26 0.29 0.44 0.46 0.36 0.40